Voltar ao catálogo

STARLINK-35443

AtivoComunicaçõesVLEO
NORAD 66339·PAYLOAD·🇺🇸 United States

Lançado Nov 6, 2025 de Cape Canaveral Space Force Station

Loading…

Próximas Passagens (próximas 24 horas)

TLE

AtualizadoSource: CelesTrak SupGP

Época: Sep 14, 2026, 22:53 UTC

1 66339C 25253W   26257.95395833  .00011137  00000+0  40331-3 0  2574
2 66339  43.0010 223.6263 0001386 256.2899 337.7820 15.27578093    18

Acompanhe STARLINK-35443 em tempo real com AllMySat

Download on the App Store